TimeEST,TemperatureF,Dew PointF,Humidity,Sea Level PressureIn,VisibilityMPH,Wind Direction,Wind SpeedMPH,Gust SpeedMPH,PrecipitationIn,Events,Conditions,WindDirDegrees,DateUTC
12:53 AM,1.0,-6.0,72,30.08,10.0,NNW,4.6,-,N/A,,Overcast,340,2013-01-07 05:53:00
1:53 AM,-0.0,-6.0,76,30.10,10.0,NNW,8.1,-,N/A,,Overcast,340,2013-01-07 06:53:00
2:53 AM,-2.0,-7.1,79,30.12,10.0,NNW,6.9,-,N/A,,Mostly Cloudy,340,2013-01-07 07:53:00
3:53 AM,-5.1,-9.0,83,30.13,10.0,NNW,4.6,-,N/A,,Clear,340,2013-01-07 08:53:00
4:53 AM,-8.0,-13.0,79,30.16,10.0,North,9.2,-,N/A,,Clear,350,2013-01-07 09:53:00
5:53 AM,-7.1,-11.9,79,30.20,10.0,NNW,9.2,-,N/A,,Clear,340,2013-01-07 10:53:00
6:53 AM,-9.0,-13.0,83,30.22,10.0,NNW,8.1,-,N/A,,Clear,330,2013-01-07 11:53:00
7:53 AM,-9.0,-13.0,83,30.25,10.0,NNW,9.2,-,N/A,,Clear,340,2013-01-07 12:53:00
8:53 AM,-6.0,-11.9,75,30.28,10.0,NNW,12.7,-,N/A,,Clear,330,2013-01-07 13:53:00
9:53 AM,-4.0,-11.9,69,30.30,10.0,NW,9.2,-,N/A,,Clear,320,2013-01-07 14:53:00
10:53 AM,-2.9,-11.9,65,30.29,10.0,NW,12.7,-,N/A,,Clear,320,2013-01-07 15:53:00
11:53 AM,-0.0,-11.9,57,30.28,10.0,WNW,10.4,-,N/A,,Clear,300,2013-01-07 16:53:00
12:53 PM,1.0,-13.0,52,30.30,10.0,NNW,12.7,-,N/A,,Clear,330,2013-01-07 17:53:00
1:53 PM,1.4,-11.2,56,30.23,10.0,NW,8.1,-,N/A,,Clear,310,2013-01-07 18:53:00
2:53 PM,1.9,-13.0,50,30.31,10.0,NW,5.8,-,N/A,,Clear,310,2013-01-07 19:53:00
3:53 PM,1.0,-13.0,52,30.33,10.0,NW,4.6,-,N/A,,Clear,310,2013-01-07 20:53:00
4:53 PM,-0.9,-13.0,57,30.32,10.0,Calm,Calm,-,N/A,,Clear,0,2013-01-07 21:53:00
5:53 PM,1.0,-11.9,55,30.34,10.0,WSW,4.6,-,N/A,,Clear,240,2013-01-07 22:53:00
6:53 PM,-0.9,-11.9,60,30.34,10.0,South,3.5,-,N/A,,Clear,180,2013-01-07 23:53:00
7:53 PM,-2.9,-11.9,65,30.33,10.0,SSE,6.9,-,N/A,,Clear,150,2013-01-08 00:53:00
8:53 PM,-2.0,-13.0,60,30.29,10.0,SE,6.9,-,N/A,,Clear,140,2013-01-08 01:53:00
9:53 PM,-4.0,-11.9,69,30.26,10.0,SSE,8.1,-,N/A,,Clear,150,2013-01-08 02:53:00
10:53 PM,-5.1,-11.9,72,30.22,10.0,South,8.1,-,N/A,,Clear,170,2013-01-08 03:53:00
11:53 PM,-5.1,-11.9,72,30.20,10.0,SE,6.9,-,N/A,,Clear,140,2013-01-08 04:53:00